[[[{"header":{"parameterUnit":"kt","parameterCategory":2,"dx":1,"dy":1,"la1":30.253999710083008,"la2":30.299108505249023,"lo1":-89.0895004272461,"lo2":-89.04439544677734,"nx":28,"ny":28,"refTime":"2022-09-29T21:00:00:Z","depth":0,"parameterNumber":1,"parameterNumberName":"U-component_of_WINDS"},"data":[-0.9347,-0.9422,-0.9418,-0.9501,-0.9511,-0.9567,-0.9586,-0.9609,-0.9627,-0.9692,-0.9729,-0.9733,-0.9749,-0.9792,-0.9831,-0.9832,-0.9849,-0.9876,-0.9873,-0.9753,-0.9737,-0.9721,-0.9704,-0.988,-0.988,-0.9998,-0.9999,-1.0,-0.9255,-0.9267,-0.931,-0.935,-0.9386,-0.9357,-0.9386,-0.9419,-0.9469,-0.9492,-0.9529,-0.9586,-0.9631,-0.9638,-0.9681,-0.9714,-0.9703,-0.9726,-0.9724,-0.9727,-0.9599,-0.9581,-0.9733,-0.9733,-0.9733,-0.9733,-0.9733,-0.9733,-0.9087,-0.9132,-0.9154,-0.9201,-0.9221,-0.9247,-0.9289,-0.9294,-0.9336,-0.9381,-0.9369,-0.9426,-0.9449,-0.9499,-0.9516,-0.956,-0.9535,-0.9559,-0.9565,-0.9572,-0.9579,-0.9409,-0.9567,-0.9566,-0.9566,-0.9565,-0.9565,0,-0.8963,-0.8958,-0.9,-0.9041,-0.9075,-0.9106,-0.9135,-0.9161,-0.9149,-0.9185,-0.9236,-0.9265,-0.9321,-0.9369,-0.9408,-0.9421,-0.9396,-0.9393,-0.941,-0.9418,-0.9418,-0.9419,-0.921,-0.939,-0.9388,-0.9387,-0.9386,-0.9386,-0.8794,-0.8847,-0.887,-0.89,-0.8916,-0.8964,-0.8992,-0.8978,-0.9009,-0.9042,-0.9082,-0.913,-0.9168,-0.925,-0.9256,-0.9298,-0.9288,-0.9356,-0.9294,-0.9297,-0.929,-0.9287,-0.9292,-0.937,-0.9372,-0.9373,-0.9375,0,-0.8699,-0.8695,-0.8777,-0.8796,-0.8802,-0.8858,-0.8873,-0.8918,-0.8918,-0.8979,-0.8993,-0.8994,-0.9045,-0.904,-0.9097,-0.9093,-0.9184,-0.9171,-0.9175,-0.9173,-0.9234,-0.9229,-0.9435,-0.946,-0.9277,-0.9278,-0.928,0,-0.8554,-0.8625,-0.8615,-0.8663,-0.874,-0.8726,-0.8802,-0.8811,-0.8832,-0.888,-0.8851,-0.8897,-0.8884,-0.8928,-0.8923,-0.8996,-0.9007,-0.9008,-0.9007,-0.9012,-0.9012,-0.9031,-0.9023,-0.8999,-0.8998,-0.8997,-0.8996,0,-0.8407,-0.8486,-0.8563,-0.8581,-0.8609,-0.8645,-0.8659,-0.8683,-0.8711,-0.8747,-0.8766,-0.8809,-0.8833,-0.8866,-0.8859,-0.8817,-0.8948,-0.8889,-0.895,-0.895,-0.8982,-0.8981,-0.9161,-0.8995,-0.8995,-0.8994,-0.8994,0,-0.8291,-0.8328,-0.8442,-0.8464,-0.8486,-0.8537,-0.8579,-0.8622,-0.8649,-0.8649,-0.8678,-0.8659,-0.8723,-0.8665,-0.8752,-0.87,-0.8724,-0.8732,-0.8736,-0.8744,-0.8679,-0.8784,-0.8954,-0.8973,-0.8747,-0.8745,-0.8743,0,-0.8124,-0.8238,-0.8227,-0.8335,-0.8387,-0.8352,-0.8408,-0.8434,-0.8439,-0.8484,-0.8489,-0.8541,-0.8496,-0.8512,-0.8556,-0.8564,-0.8632,-0.8554,-0.8619,-0.8621,-0.8614,-0.877,-0.8798,-0.8917,-0.8717,-0.8719,-0.8721,0,-0.7995,-0.803,-0.8051,-0.807,-0.8104,-0.8148,-0.8212,-0.8261,-0.8291,-0.8324,-0.8378,-0.845,-0.842,-0.8447,-0.8438,-0.8483,-0.8585,-0.8445,-0.8446,-0.8471,-0.8703,-0.8729,-0.8749,-0.8568,-0.8571,-0.8574,-0.87,0,-0.7821,-0.7878,-0.7933,-0.7979,-0.8013,-0.8081,-0.8079,-0.8114,-0.8101,-0.8106,-0.8185,-0.8208,-0.8258,-0.828,-0.8269,-0.8375,-0.8357,-0.8325,-0.8271,-0.8373,-0.8415,-0.8432,-0.8208,-0.8206,-0.8205,-0.8204,0,0,-0.7662,-0.7746,-0.7734,-0.7797,-0.7825,-0.779,-0.7863,-0.7886,-0.7934,-0.7954,-0.7923,-0.8029,-0.805,-0.8147,-0.8179,-0.82,-0.8218,-0.8184,-0.8324,-0.8337,-0.835,-0.8394,-0.8412,-0.8202,-0.8201,-0.8201,-0.82,0,-0.7599,-0.7621,-0.7694,-0.7717,-0.7751,-0.7753,-0.777,-0.7799,-0.7806,-0.7885,-0.7856,-0.7903,-0.7991,-0.8016,-0.804,-0.8171,-0.8148,-0.8186,-0.8258,-0.831,-0.8325,-0.8339,-0.8386,-0.8403,-0.8197,-0.8197,-0.8197,0,-0.7473,-0.7494,-0.7529,-0.7592,-0.7614,-0.767,-0.7611,-0.7673,-0.7714,-0.7675,-0.7754,-0.7767,-0.7801,-0.7894,-0.7936,-0.7909,-0.8083,-0.8028,-0.8037,-0.8043,-0.8093,-0.8112,-0.8128,-0.7914,-0.7913,-0.7912,0,0,-0.7419,-0.7473,-0.7493,-0.7578,-0.7594,-0.7599,-0.7629,-0.7621,-0.7652,-0.7665,-0.7682,-0.7714,-0.7763,-0.7797,-0.7845,-0.7947,-0.7953,-0.7994,-0.8007,-0.8018,-0.8029,-0.8083,-0.8101,-0.7908,-0.7908,-0.7908,0,0,-0.7394,-0.742,-0.7402,-0.7501,-0.7532,-0.7558,-0.761,-0.7589,-0.7632,-0.7624,-0.7613,-0.7622,-0.7708,-0.7723,-0.7673,-0.7825,-0.7771,-0.7783,-0.7813,-0.783,-0.7843,-0.7839,-0.7618,0,0,0,0,0,-0.733,-0.7416,-0.74,-0.7416,-0.7497,-0.7566,-0.7577,-0.757,-0.7531,-0.7572,-0.7582,-0.7555,-0.7693,-0.7649,-0.7666,-0.7722,-0.7861,-0.7869,-0.7877,-0.7941,-0.7958,-0.7973,0,0,0,0,0,0,-0.7336,-0.7356,-0.7397,-0.7427,-0.7445,-0.7563,-0.7496,-0.7496,-0.7526,-0.752,-0.7554,-0.7557,-0.7552,-0.764,-0.7655,-0.7709,-0.7613,-0.7864,-0.7871,-0.7878,-0.7947,-0.7961,-0.7973,0,0,0,0,0,-0.7341,-0.7357,-0.7489,-0.7426,-0.7442,-0.7453,-0.7492,-0.7492,-0.7515,-0.7533,-0.7534,-0.7508,-0.7554,-0.7566,-0.7649,-0.7703,-0.7603,-0.7608,-0.7869,-0.7874,-0.7879,-0.7954,0,0,0,0,0,0,-0.7345,-0.7358,-0.7492,-0.7496,-0.7393,-0.7446,-0.7454,-0.7489,-0.7527,-0.7529,-0.7486,-0.748,-0.7556,-0.7565,-0.7575,-0.7701,-0.7594,-0.76,-0.7603,-0.7873,-0.7877,-0.7881,0,0,0,0,0,0,-0.7349,-0.7362,-0.7494,-0.7453,-0.7453,-0.744,-0.7447,-0.7517,-0.7527,-0.7477,-0.7473,-0.7483,-0.7542,-0.7565,-0.7572,-0.7682,-0.7587,-0.7593,-0.7597,-0.7599,-0.7876,-0.788,0,0,0,0,0,0,-0.7354,-0.7365,-0.7452,-0.7452,-0.7452,-0.7502,-0.7502,-0.7585,-0.7492,-0.7476,-0.7483,-0.748,-0.7543,-0.755,-0.7571,-0.7678,-0.7681,-0.7588,-0.7591,-0.7594,-0.7596,0,0,0,0,0,0,0,-0.7358,-0.7286,-0.7465,-0.7451,-0.745,-0.7538,-0.7539,-0.754,-0.7491,-0.7488,-0.7484,-0.7481,-0.7556,-0.7562,-0.7568,-0.7674,0,0,-0.7587,-0.759,0,0,0,0,0,0,0,0,-0.7281,-0.7285,-0.7465,-0.7466,-0.7467,-0.7538,-0.7539,-0.754,-0.7491,-0.7488,-0.7485,-0.7483,-0.7558,-0.7563,-0.7568,0,0,0,0,0,0,0,0,0,0,0,0,0,0,0,-0.7465,-0.7466,0,-0.7538,-0.7539,-0.754,-0.749,-0.7488,-0.7486,-0.7484,-0.7559,-0.7563,-0.7567,0,0,0,0,0,0,0,0,0,0,0,0,0,0,0,0,0,0,0,0,0,0,0,0,0,0,0,0,0,0,0,0,0,0,0,0,0,0,0,0,0,0,0,0,0,0,0,0,0,0,0,0,0,0,0,0,0,0,0,0,0,0,0,0,0,0,0,0,0]}],[{"header":{"parameterUnit":"kt","parameterCategory":2,"dx":1,"dy":1,"la1":30.253999710083008,"la2":30.299108505249023,"lo1":-89.0895004272461,"lo2":-89.04439544677734,"nx":28,"ny":28,"refTime":"2022-09-29T21:00:00:Z","depth":0,"parameterNumber":2,"parameterNumberName":"V-component_of_WINDS"},"data":[-12.8175,-12.8411,-12.8402,-12.8665,-12.87,-12.8876,-12.8934,-12.9008,-12.9063,-12.9267,-12.9381,-12.939,-12.9435,-12.9564,-12.9683,-12.9683,-12.9734,-12.9827,-12.981,-12.9411,-12.9354,-12.93,-12.9244,-12.9839,-12.9839,-13.0224,-13.0228,-13.0231,-12.7884,-12.7922,-12.8059,-12.8184,-12.83,-12.8205,-12.8294,-12.8395,-12.8553,-12.8622,-12.8734,-12.8911,-12.9046,-12.9059,-12.9186,-12.929,-12.925,-12.9325,-12.9316,-12.9324,-12.8897,-12.8839,-12.9356,-12.9356,-12.9356,-12.9356,-12.9356,-12.9356,-12.735,-12.7493,-12.7563,-12.771,-12.7769,-12.7852,-12.7983,-12.7992,-12.8122,-12.8257,-12.8214,-12.8391,-12.8453,-12.8597,-12.864,-12.8773,-12.8686,-12.8762,-12.8781,-12.8801,-12.8826,-12.827,-12.8794,-12.8792,-12.8791,-12.879,-12.8788,0,-12.6956,-12.6938,-12.7068,-12.7196,-12.7302,-12.7397,-12.7482,-12.7563,-12.7512,-12.7621,-12.7776,-12.7862,-12.803,-12.817,-12.8284,-12.8312,-12.8217,-12.8206,-12.8259,-12.8282,-12.8289,-12.8287,-12.7591,-12.819,-12.8185,-12.8181,-12.8178,-12.8176,-12.6416,-12.6584,-12.6649,-12.6742,-12.6785,-12.6935,-12.702,-12.6963,-12.7056,-12.7148,-12.7273,-12.7415,-12.7525,-12.777,-12.7771,-12.7894,-12.7848,-12.8079,-12.7866,-12.7883,-12.785,-12.784,-12.7856,-12.8121,-12.8128,-12.8134,-12.8139,0,-12.6112,-12.6092,-12.6347,-12.6393,-12.641,-12.6587,-12.6623,-12.6761,-12.6752,-12.6938,-12.6978,-12.6963,-12.7113,-12.7076,-12.7239,-12.7215,-12.7498,-12.7451,-12.7477,-12.7465,-12.7667,-12.7648,-12.833,-12.8415,-12.7801,-12.7807,-12.7812,0,-12.5642,-12.5863,-12.5819,-12.5968,-12.6211,-12.6147,-12.6388,-12.6404,-12.6458,-12.6604,-12.6493,-12.6631,-12.6562,-12.6695,-12.6659,-12.6884,-12.6914,-12.6908,-12.6896,-12.6918,-12.6919,-12.6962,-12.6932,-12.6862,-12.6859,-12.6856,-12.6853,0,-12.5168,-12.5403,-12.5645,-12.5694,-12.5764,-12.5878,-12.5911,-12.5969,-12.6052,-12.6153,-12.6205,-12.6327,-12.6393,-12.6486,-12.6439,-12.6296,-12.6714,-12.6507,-12.6707,-12.6709,-12.68,-12.6795,-12.741,-12.6849,-12.6848,-12.6847,-12.6845,0,-12.4783,-12.4892,-12.5247,-12.5301,-12.5364,-12.5523,-12.5639,-12.5766,-12.5835,-12.5824,-12.5902,-12.5822,-12.6017,-12.5814,-12.608,-12.5907,-12.5977,-12.5989,-12.6002,-12.6016,-12.5789,-12.614,-12.6732,-12.6791,-12.603,-12.6024,-12.6018,0,-12.4245,-12.4597,-12.4545,-12.4882,-12.5039,-12.4904,-12.5078,-12.5143,-12.5142,-12.5271,-12.5267,-12.5414,-12.5256,-12.5296,-12.5433,-12.5434,-12.5659,-12.5402,-12.5583,-12.559,-12.5569,-12.6113,-12.621,-12.6607,-12.593,-12.5939,-12.5946,0,-12.3825,-12.391,-12.3974,-12.4027,-12.4105,-12.4235,-12.4435,-12.4568,-12.4657,-12.4742,-12.4905,-12.5111,-12.4999,-12.5066,-12.5013,-12.5158,-12.5504,-12.5016,-12.5017,-12.5105,-12.5883,-12.5974,-12.6041,-12.5436,-12.5446,-12.5455,-12.5877,0,-12.3247,-12.342,-12.3592,-12.3713,-12.3808,-12.4016,-12.398,-12.4083,-12.4023,-12.4017,-12.4256,-12.4297,-12.4429,-12.4495,-12.4436,-12.478,-12.4716,-12.4594,-12.4392,-12.475,-12.4888,-12.4944,-12.419,-12.4184,-12.4178,-12.4174,0,0,-12.2736,-12.2983,-12.2919,-12.3112,-12.3187,-12.3043,-12.3269,-12.3325,-12.3441,-12.3495,-12.3383,-12.3679,-12.3716,-12.401,-12.4119,-12.4172,-12.4229,-12.4105,-12.458,-12.4626,-12.4668,-12.4816,-12.4875,-12.4165,-12.4163,-12.4161,-12.4159,0,-12.2517,-12.2567,-12.2793,-12.2849,-12.2929,-12.2912,-12.2967,-12.3019,-12.3025,-12.326,-12.3134,-12.3272,-12.351,-12.3566,-12.3626,-12.407,-12.3964,-12.4113,-12.4365,-12.4529,-12.4582,-12.4628,-12.4784,-12.4842,-12.4147,-12.4147,-12.4148,0,-12.2096,-12.2137,-12.2243,-12.241,-12.246,-12.2624,-12.2405,-12.2587,-12.2706,-12.2534,-12.2769,-12.2786,-12.2857,-12.3141,-12.3266,-12.3166,-12.3726,-12.3542,-12.3574,-12.3586,-12.3743,-12.3806,-12.3862,-12.3121,-12.3118,-12.3115,0,0,-12.1911,-12.2071,-12.2095,-12.236,-12.2401,-12.2378,-12.2461,-12.2409,-12.2479,-12.2508,-12.2527,-12.2597,-12.2733,-12.2825,-12.2951,-12.3269,-12.3276,-12.3418,-12.3466,-12.3506,-12.354,-12.3707,-12.3769,-12.3102,-12.3102,-12.3101,0,0,-12.182,-12.186,-12.1788,-12.2092,-12.2165,-12.2203,-12.2365,-12.2276,-12.2387,-12.2358,-12.2275,-12.229,-12.2554,-12.2575,-12.2409,-12.2877,-12.2678,-12.2717,-12.2854,-12.2915,-12.2962,-12.2951,-12.2185,0,0,0,0,0,-12.1578,-12.1855,-12.179,-12.1836,-12.2044,-12.224,-12.2266,-12.2207,-12.2067,-12.2197,-12.2199,-12.2081,-12.2468,-12.2319,-12.2363,-12.2549,-12.2937,-12.2966,-12.2994,-12.3245,-12.3308,-12.3362,0,0,0,0,0,0,-12.1595,-12.1651,-12.1782,-12.1834,-12.188,-12.223,-12.1981,-12.1972,-12.2052,-12.2027,-12.2084,-12.2083,-12.2033,-12.2292,-12.2333,-12.251,-12.2171,-12.2948,-12.2973,-12.2996,-12.3266,-12.3319,-12.3363,0,0,0,0,0,-12.1608,-12.1653,-12.2005,-12.1829,-12.1869,-12.1857,-12.1969,-12.196,-12.2021,-12.2024,-12.2018,-12.1969,-12.204,-12.2069,-12.2316,-12.2494,-12.2143,-12.2158,-12.2964,-12.2984,-12.3002,-12.3292,0,0,0,0,0,0,-12.1618,-12.1645,-12.2011,-12.2021,-12.172,-12.1836,-12.1852,-12.1951,-12.2011,-12.2009,-12.1903,-12.1882,-12.2048,-12.2069,-12.2093,-12.2491,-12.2119,-12.2135,-12.2145,-12.2979,-12.2995,-12.3008,0,0,0,0,0,0,-12.162,-12.1654,-12.2016,-12.1882,-12.1875,-12.1817,-12.1832,-12.2031,-12.2014,-12.1886,-12.187,-12.1893,-12.201,-12.2071,-12.2089,-12.2403,-12.2102,-12.2117,-12.2127,-12.2134,-12.2992,-12.3004,0,0,0,0,0,0,-12.1633,-12.1662,-12.1878,-12.1874,-12.1868,-12.1973,-12.1991,-12.2207,-12.1903,-12.1885,-12.1874,-12.186,-12.2016,-12.2032,-12.2087,-12.2394,-12.24,-12.2102,-12.2112,-12.212,-12.2124,0,0,0,0,0,0,0,-12.1644,-12.1463,-12.1954,-12.1868,-12.1862,-12.2112,-12.2115,-12.2117,-12.19,-12.1888,-12.1877,-12.1866,-12.2016,-12.2032,-12.2049,-12.2387,0,0,-12.2101,-12.2108,0,0,0,0,0,0,0,0,-12.1449,-12.1459,-12.1954,-12.1956,-12.1958,-12.2112,-12.2114,-12.2117,-12.1898,-12.1889,-12.1879,-12.187,-12.202,-12.2034,-12.2047,0,0,0,0,0,0,0,0,0,0,0,0,0,0,0,-12.1954,-12.1956,0,-12.2113,-12.2114,-12.2116,-12.1897,-12.1889,-12.1881,-12.1874,-12.2024,-12.2035,-12.2046,0,0,0,0,0,0,0,0,0,0,0,0,0,0,0,0,0,0,0,0,0,0,0,0,0,0,0,0,0,0,0,0,0,0,0,0,0,0,0,0,0,0,0,0,0,0,0,0,0,0,0,0,0,0,0,0,0,0,0,0,0,0,0,0,0,0,0,0,0]}]]]